Weather in Bolshoye Tikhvino

Russia / Tyumen Oblast     57°02′10″N   66°43′45″E
temp.,
°C
wind,
m/s
gust,
m/s
humid.,
%
clouds,
%
prec.,
mm/h
press.,
hPa
HPBL,
m
19 april, mon
mon1923:00−5nne511440 0.0 10301325
02:00−6nne37475 0.0 10321264
05:00−6n25525 0.0 1033558
08:00−4n4641100 0.0 10331564
11:00−1n5731100 0.0 10332154
14:00+1n4728100 0.0 10322383
17:00+1n4728100 0.0 10322291
20:00−3ne37445 0.0 1033156
20 april, tue
tue2023:00−5ene22540 0.0 103449
02:00−6se11565 0.0 103411
05:00−6sw11565 0.0 103425
08:00−2wsw353632 0.0 1033613
11:00+3w462915 0.0 10311327
14:00+7w58295 0.0 10281753
17:00+8wnw58335 0.0 10261774
20:00+3w375541 0.0 1026132
21 april, wed
wed2123:00+2w3126416 0.0 1025247
02:00+1wnw287714 0.0 1025160
05:00−1nnw23905 0.0 102753
08:00+4n36705 0.0 1029473
11:00+7n465580 0.0 10301358
14:00+8nne454859 0.0 10311425
17:00+9n34405 0.0 10321557
20:00+5nne22550 0.0 103419
22 april, thu
thu2223:00+3e22610 0.0 103618
02:00+1se23690 0.0 103754
05:000se26740 0.0 1038107
08:00+5sse46525 0.0 1039420
11:00+9sse453856 0.0 10391263
14:00+12s46339 0.0 10381661
17:00+12s463383 0.0 10371651
20:00+8sse494783 0.0 1038270
23 april, fri
fri2323:00+6sse41350100 0.0 1038429
02:00+5sse41351100 0.0 1037405
05:00+4sse41156100 0.0 1037314
08:00+7s484761 0.0 1037361
11:00+13s57375 0.0 10361046
14:00+15ssw563449 0.0 10342076
17:00+15ssw5633100 0.0 10342170
20:00+11s41040100 0.0 1034454